Waarnemingen

Advertentie
Mijn weer
Gourette, Frankrijk (7775): temperatuur & dauwpunt: 16.01.2018 17:00:00 - 22.01.2018 17:00:00 (CET)Gourette, Frankrijk (7775): windsnelheid & windstoten: 16.01.2018 17:00:00 - 22.01.2018 17:00:00 (CET)Gourette, Frankrijk (7775): windrichting: 16.01.2018 17:00:00 - 22.01.2018 17:00:00 (CET)Gourette, Frankrijk (7775): luchtdruk: 16.01.2018 17:00:00 - 22.01.2018 17:00:00 (CET)Gourette, Frankrijk (7775): zicht: 16.01.2018 17:00:00 - 22.01.2018 17:00:00 (CET)Gourette, Frankrijk (7775): neerslag: 16.01.2018 17:00:00 - 22.01.2018 17:00:00 (CET)
Datum & Tijd tt [°C] td [°C] ff [km/u] ff [kn] fx [km/u] fx [kn] dd ppp [hPa] vv [km] rr [mm]
22.01.2018 17:00:00 - - - - - - - - - -
22.01.2018 16:00:00 14,9 8,6 6 3 15 8 OZO 1014,4 20 0,0
22.01.2018 15:00:00 14,1 8,5 9 5 19 11 ZZO 1014,1 - 0,0
22.01.2018 14:00:00 15,0 8,2 11 6 - - ZZO 1013,9 - 0,0
22.01.2018 13:00:00 14,8 8,5 8 4 14 8 OZO 1014,8 25 0,0
22.01.2018 12:00:00 16,1 9,0 7 4 15 8 OZO 1015,0 - 0,0
22.01.2018 11:00:00 13,3 8,1 7 4 12 7 N 1015,4 - 0,0
22.01.2018 10:00:00 14,1 8,3 4 2 6 3 NO 1014,5 25 0,0
22.01.2018 09:00:00 13,0 7,4 4 2 7 4 NO 1013,8 - 0,0
22.01.2018 08:00:00 12,5 6,5 5 3 13 7 NNW 1013,4 - 0,0
22.01.2018 07:00:00 11,8 5,9 6 3 12 7 N 1013,1 - 0,0
22.01.2018 06:00:00 12,4 7,5 4 2 8 4 N 1013,0 - 0,0
22.01.2018 05:00:00 12,0 6,3 2 1 14 8 ZW 1012,7 - 0,0
22.01.2018 04:00:00 13,0 6,3 8 4 13 7 NW 1012,8 15 0,0
22.01.2018 03:00:00 12,1 2,8 8 4 11 6 NO 1013,0 - 0,0
22.01.2018 02:00:00 11,4 3,4 7 4 18 10 ZZW 1013,0 - 0,0
22.01.2018 01:00:00 12,4 0,5 18 10 22 12 NNW 1012,7 - 0,0
22.01.2018 00:00:00 14,3 1,5 2 1 7 4 W 1012,3 - 0,0
21.01.2018 23:00:00 14,4 3,2 3 1 9 5 O 1012,0 - 0,0
21.01.2018 22:00:00 15,3 3,1 8 5 12 6 NW 1011,9 - 0,0
21.01.2018 21:00:00 13,9 -0,2 10 5 18 10 N 1011,5 - 0,0
21.01.2018 20:00:00 12,9 6,2 3 1 9 5 O 1010,8 - 0,0
21.01.2018 19:00:00 15,4 5,6 5 3 13 7 W 1009,7 - 0,0
21.01.2018 18:00:00 14,8 6,9 12 7 14 8 WZW 1009,3 - 0,0
21.01.2018 17:00:00 16,5 6,9 6 3 10 5 ZZW 1008,8 - 0,0
21.01.2018 16:00:00 18,6 8,3 3 1 13 7 ONO 1008,1 - 0,0
21.01.2018 15:00:00 18,8 9,3 6 3 16 9 ONO 1007,3 - 0,0
21.01.2018 14:00:00 18,7 8,4 8 5 18 10 OZO 1006,7 - 0,0
21.01.2018 13:00:00 19,3 6,1 9 5 18 10 Z 1006,7 - 0,0
21.01.2018 12:00:00 18,6 9,4 8 5 19 10 Z 1006,6 - 0,0
21.01.2018 11:00:00 18,8 8,4 4 2 11 6 ZZO 1006,1 - 0,0
21.01.2018 10:00:00 17,3 9,9 6 3 14 7 O 1005,1 20 0,0
21.01.2018 09:00:00 14,1 9,1 8 4 15 8 N 1004,0 - 0,0
21.01.2018 08:00:00 11,9 8,4 4 2 18 10 NO 1002,9 - 0,0
21.01.2018 07:00:00 12,0 9,2 13 7 25 13 N 1002,3 - 0,0
21.01.2018 06:00:00 11,0 7,9 14 8 39 21 N 1001,9 - 0,0
21.01.2018 05:00:00 10,9 5,2 21 12 30 16 N 1001,3 - 0,0
21.01.2018 04:00:00 11,1 5,8 21 11 29 16 N 1001,9 - 0,0
21.01.2018 03:00:00 10,2 4,6 16 9 27 14 N 1003,5 - 0,0
21.01.2018 02:00:00 10,1 4,7 15 8 25 14 N 1004,2 - 0,0
21.01.2018 01:00:00 10,2 3,5 13 7 21 12 N 1005,4 - 0,0
21.01.2018 00:00:00 10,4 3,0 11 6 16 9 NNW 1007,1 - 0,0
20.01.2018 23:00:00 10,3 2,1 9 5 15 8 WZW 1008,1 - 0,0
20.01.2018 22:00:00 9,5 2,3 13 7 20 11 WZW 1009,5 - 0,0
20.01.2018 21:00:00 8,8 3,4 4 2 11 6 W 1010,2 - 0,0
20.01.2018 20:00:00 11,5 3,3 5 3 17 9 ONO 1011,1 15 0,0
20.01.2018 19:00:00 11,2 4,9 11 6 24 13 NW 1011,5 15 0,0
20.01.2018 18:00:00 11,5 5,1 11 6 14 8 NNW 1011,5 - 0,0
20.01.2018 17:00:00 12,5 4,0 9 5 16 9 OZO 1011,2 - 0,0
20.01.2018 16:00:00 13,7 5,6 9 5 22 12 ZZO 1011,6 - 0,0
20.01.2018 15:00:00 14,9 5,1 14 8 25 14 ZZO 1011,8 - 0,0
20.01.2018 14:00:00 15,2 4,3 16 9 28 15 ZZO 1012,2 - 0,0
20.01.2018 13:00:00 15,1 4,7 18 10 30 16 ZZO 1013,0 - 0,0
20.01.2018 12:00:00 16,8 2,4 10 5 20 11 Z 1013,9 - 0,0
20.01.2018 11:00:00 14,8 2,3 7 4 12 7 O 1014,4 - 0,0
20.01.2018 10:00:00 12,6 1,0 8 4 10 5 NNO 1014,2 20 0,0
20.01.2018 09:00:00 12,0 0,1 3 2 7 4 NW 1013,8 - 0,0
20.01.2018 08:00:00 11,0 -2,1 5 3 7 4 NNO 1013,3 - 0,0
20.01.2018 07:00:00 10,4 -1,7 5 3 9 5 ZZW 1012,8 20 0,0
20.01.2018 06:00:00 10,6 -2,5 5 3 14 8 ZZW 1012,0 - 0,0
20.01.2018 05:00:00 10,5 -1,3 4 2 20 11 NW 1011,9 - 0,0
20.01.2018 04:00:00 11,9 -1,6 8 4 22 12 NW 1011,7 20 0,0
20.01.2018 03:00:00 10,6 -1,2 14 7 20 11 W 1011,9 - 0,0
20.01.2018 02:00:00 11,1 -0,4 11 6 23 12 ZW 1011,8 - 0,0
20.01.2018 01:00:00 12,1 0,2 11 6 22 12 WNW 1011,9 - 0,0
20.01.2018 00:00:00 11,4 1,9 9 5 18 10 WNW 1011,9 - 0,0
19.01.2018 23:00:00 12,4 0,2 7 4 18 10 WZW 1011,7 - 0,0
19.01.2018 22:00:00 12,6 1,6 13 7 22 12 NW 1011,8 - 0,0
19.01.2018 21:00:00 12,1 0,2 12 6 23 12 WZW 1011,1 - 0,0
19.01.2018 20:00:00 12,7 1,4 10 5 22 12 ZW 1011,4 - 0,0
19.01.2018 19:00:00 11,7 6,2 21 11 29 15 NW 1011,4 18 0,0
19.01.2018 18:00:00 11,1 8,3 21 11 26 14 N 1011,0 - 0,0
19.01.2018 17:00:00 12,1 8,8 15 8 26 14 N 1010,0 - 0,0
19.01.2018 16:00:00 13,0 8,7 15 8 22 12 N 1009,3 - 0,0
19.01.2018 15:00:00 12,2 8,1 14 8 21 11 N 1009,4 - 0,0
19.01.2018 14:00:00 11,8 7,9 4 2 13 7 N 1009,5 - 0,0
19.01.2018 13:00:00 11,9 8,4 6 3 14 7 NNO 1010,2 - 0,0
19.01.2018 12:00:00 11,9 7,4 9 5 15 8 NNO 1010,6 - 0,0
19.01.2018 11:00:00 11,9 5,7 6 4 25 13 W 1011,2 - 0,0
19.01.2018 10:00:00 11,9 6,6 6 3 13 7 WZW 1010,8 - 0,0
19.01.2018 09:00:00 11,8 7,3 4 2 9 5 N 1011,3 - 0,0
19.01.2018 08:00:00 11,6 5,9 11 6 14 8 NW 1011,3 - 0,0
19.01.2018 07:00:00 10,7 6,6 7 4 18 10 NNW 1011,4 - 0,0
19.01.2018 06:00:00 10,4 5,4 15 8 24 13 NNW 1011,8 - 0,0
19.01.2018 05:00:00 9,6 4,2 21 11 28 15 N 1012,0 - 0,0
19.01.2018 04:00:00 9,6 4,8 21 11 31 17 N 1012,2 20 0,0
19.01.2018 03:00:00 10,1 4,9 8 5 18 10 NNW 1012,8 - 0,0
19.01.2018 02:00:00 9,9 3,6 16 8 21 12 NNW 1013,2 - 0,0
19.01.2018 01:00:00 9,6 2,9 20 11 23 13 NNW 1013,4 - 0,0
19.01.2018 00:00:00 9,7 3,2 17 9 22 12 NNW 1013,8 - 0,0
18.01.2018 23:00:00 10,1 3,8 13 7 16 9 NNW 1014,6 - 0,0
18.01.2018 22:00:00 10,7 4,2 8 4 12 6 WNW 1015,3 - 0,0
18.01.2018 21:00:00 10,4 3,4 9 5 16 8 NNW 1015,7 - 0,0
18.01.2018 20:00:00 10,1 3,1 9 5 19 10 N 1016,1 - 0,0
18.01.2018 19:00:00 10,3 2,9 10 5 19 11 N 1016,2 - 0,0
18.01.2018 18:00:00 11,2 3,2 3 1 11 6 W 1016,6 - 0,0
18.01.2018 17:00:00 11,8 3,3 4 2 12 7 ZO 1016,1 - 0,0
18.01.2018 16:00:00 14,1 3,5 8 4 16 9 NNO 1016,5 30 0,0
18.01.2018 15:00:00 14,8 2,3 11 6 21 11 ONO 1016,6 - 0,0
18.01.2018 14:00:00 14,7 1,6 13 7 21 11 NO 1017,1 - 0,0
18.01.2018 13:00:00 16,1 1,4 11 6 22 12 NO 1017,6 30 0,0
18.01.2018 12:00:00 16,2 2,6 13 7 21 11 NNO 1018,6 - 0,0
18.01.2018 11:00:00 15,1 0,9 12 7 19 10 NNO 1019,3 - 0,0
18.01.2018 10:00:00 11,9 -0,3 13 7 23 12 N 1019,4 20 0,0
18.01.2018 09:00:00 12,8 -0,8 2 1 18 10 WZW 1018,6 - 0,0
18.01.2018 08:00:00 9,1 -4,5 14 8 23 13 ZW 1018,2 - 0,0
18.01.2018 07:00:00 8,7 -5,2 15 8 24 13 ZW 1018,1 - 0,0
18.01.2018 06:00:00 7,0 -4,1 21 11 26 14 ZW 1017,7 - 0,0
18.01.2018 05:00:00 8,2 -4,6 13 7 17 9 ZW 1018,3 - 0,0
18.01.2018 04:00:00 9,4 -5,7 6 3 8 4 Z 1018,6 - 0,0
18.01.2018 03:00:00 9,6 -5,9 2 1 10 5 ONO 1018,9 - 0,0
18.01.2018 02:00:00 10,5 -5,9 9 5 19 10 W 1018,4 - 0,0
18.01.2018 01:00:00 8,5 -3,1 16 9 22 12 WZW 1018,5 - 0,0
18.01.2018 00:00:00 9,9 -3,8 8 4 24 13 WZW 1018,3 - 0,0
17.01.2018 23:00:00 9,6 -3,0 13 7 23 12 WZW 1017,7 - 0,0
17.01.2018 22:00:00 11,1 -3,8 10 5 26 14 WZW 1017,1 - 0,0
17.01.2018 21:00:00 11,3 -3,6 16 9 42 23 W 1015,8 - 0,0
17.01.2018 20:00:00 11,2 -4,1 20 11 44 24 W 1014,7 - 0,0
17.01.2018 19:00:00 12,1 -4,5 19 10 44 24 WNW 1013,6 20 0,0
17.01.2018 18:00:00 12,2 -4,9 8 4 39 21 OZO 1012,2 - 0,0
17.01.2018 17:00:00 12,7 -4,9 13 7 66 35 WNW 1010,9 - 0,0
17.01.2018 16:00:00 14,4 -4,9 17 9 78 42 W 1009,3 - 0,0
17.01.2018 15:00:00 15,0 -4,4 44 24 86 47 W 1007,2 - 0,0
17.01.2018 14:00:00 15,9 -4,1 46 25 85 46 W 1005,8 - 0,0
17.01.2018 13:00:00 16,4 -3,7 41 22 109 59 W 1004,8 - 0,0
17.01.2018 12:00:00 16,6 -4,6 64 35 119 64 W 1003,5 - 0,0
17.01.2018 11:00:00 17,1 -5,4 58 31 120 65 W 1002,5 - 0,0
17.01.2018 10:00:00 17,2 -2,0 49 26 108 58 W 1002,1 20 0,0
17.01.2018 09:00:00 16,4 -0,8 68 37 145 79 WZW 1000,9 - 0,0
17.01.2018 08:00:00 17,1 -0,6 69 37 131 71 WZW 1001,8 - 0,0
17.01.2018 07:00:00 17,7 0,8 45 25 136 73 WZW 1002,2 - 0,0
17.01.2018 06:00:00 18,1 2,4 52 28 127 69 W 1002,4 - 0,0
17.01.2018 05:00:00 19,0 1,0 55 30 116 62 W 1002,4 - 0,0
17.01.2018 04:00:00 18,1 2,0 37 20 96 52 WZW 1003,9 - 0,0
17.01.2018 03:00:00 17,6 3,5 19 10 113 61 Z 1004,4 - 0,0
17.01.2018 02:00:00 18,0 3,5 13 7 87 47 WNW 1005,4 - 0,0
17.01.2018 01:00:00 18,5 3,1 42 23 100 54 W 1006,3 - 0,0
17.01.2018 00:00:00 18,8 3,8 52 28 120 65 W 1006,8 - 0,0
16.01.2018 23:00:00 18,5 3,5 40 21 96 52 W 1007,0 - 0,0
16.01.2018 22:00:00 17,8 3,6 42 23 94 51 WZW 1007,1 - 0,0
16.01.2018 21:00:00 18,4 3,0 48 26 94 51 W 1008,0 - 0,0
16.01.2018 20:00:00 16,4 5,4 16 9 65 35 ZW 1008,4 - 0,0
16.01.2018 19:00:00 17,3 4,3 25 13 85 46 NW 1008,7 20 0,0
16.01.2018 18:00:00 17,8 3,3 40 22 99 53 W 1008,2 - 0,0
16.01.2018 17:00:00 17,7 3,6 41 22 103 55 W 1008,3 - 0,0

tt = temperatuur
td = dauwpunt
ff = windsnelheid
fx = windstoten
dd = windrichting
ppp = luchtdruk
vv = zicht
rr = neerslag

Weerstations in de omgeving